sat.trackr.live / text

‹ back to catalog

STARLINK-36492

NORAD 67332 · 2026-002AD

PAYLOAD ACTIVE UNKNOWN

§ Identity

Operator
Country
US
Launch date
2026-01-04
Launch site
AFETR
Launch vehicle
Mass (kg)
RCS (m²)

Purposes: comms

External: N2YO · Heavens-Above · Gunter

§ Orbital elements

Epoch: 2026-09-19T19:34:24.418560Z

Period
94.27 min
Inclination
42.9990°
Eccentricity
0.0001639
Mean motion
15.27586296 rev/d
Perigee alt
481.9 km
Apogee alt
484.2 km
Semi-major
6,861.2 km
B*
3.8850e-4
RAAN
309.3135°
Arg perigee
287.5492°
Mean anomaly
72.5180°
Rev number
4,092

§ Raw data

STARLINK-364921 67332U 26002AD  26262.81556040  .00010446  00000+0  38850-3 0  99992 67332  42.9990 309.3135 0001639 287.5492  72.5180 15.27586296 40925

JSON: /api/v1/satellites/67332 · /tle

For live sub-satellite position, see the globe view (requires WebGL).

§ Visibility from observer

Set your observer location to see the next 7 days of passes ≥ 10°. The values pass through the URL so the page stays shareable.

No JS? Fill the form by hand. The geolocation button needs JavaScript.